Add date Part number Description Manufacture PDF
06-01-2016 74HC4075-Q100 74HC4075-Q100; 74HCT4075-Q100 Tripl NXP 74HC4075-Q100 datasheet
06-01-2016 UCC2808-1 Low Power Current Mode Push-Pull PW Unitrode UCC2808-1 datasheet
06-01-2016 CD74HC4015 Texas Instruments CD74HC4015 datasheet
06-01-2016 74HC4094 74HC4094; 74HCT4094 8-stage shift- NXP 74HC4094 datasheet
06-01-2016 74HC4020 74HC4020; 74HCT4020 14-stage binar NXP 74HC4020 datasheet
06-01-2016 74HCT9046A 74HCT9046A PLL with band gap contro NXP 74HCT9046A datasheet
06-01-2016 74HC4051 74HC4051; 74HCT4051 8-channel anal NXP 74HC4051 datasheet
06-01-2016 74HCT4051 74HC4051; 74HCT4051 8-channel anal NXP 74HCT4051 datasheet
06-01-2016 74HC4017 74HC4017; 74HCT4017 Johnson decade NXP 74HC4017 datasheet
06-01-2016 74HC40105 74HC40105; 74HCT40105 4-bit x 16-w NXP 74HC40105 datasheet
06-01-2016 74HC4002 74HC4002; 74HCT4002 Dual 4-input N NXP 74HC4002 datasheet
06-01-2016 UCC2808-2 Texas Instruments UCC2808-2 datasheet
06-01-2016 DRV8818 Texas Instruments DRV8818 datasheet
06-01-2016 CD74HC4067 Texas Instruments CD74HC4067 datasheet
06-01-2016 CD74HCT4067-Q1 Texas Instruments CD74HCT4067-Q1 datasheet
06-01-2016 TL6502 8 入 6 出视频切换开关 TL650 TopLake TL6502 datasheet
06-01-2016 TSHA6500 www.vishay.com TSHA6500 Vishay Sem Vishay TSHA6500 datasheet
06-01-2016 TSHA6501 TSHA6500, TSHA6501, TSHA6502, TSHA6 Vishay TSHA6501 datasheet
06-01-2016 TSHA6502 TSHA6500, TSHA6501, TSHA6502, TSHA6 Vishay TSHA6502 datasheet
06-01-2016 TSHA6503 TSHA6500, TSHA6501, TSHA6502, TSHA6 Vishay TSHA6503 datasheet
06-01-2016 74HC423 74HC423; 74HCT423 Dual retriggerab NXP 74HC423 datasheet
06-01-2016 SN7400 Texas Instruments SN7400 datasheet
06-01-2016 SN74LS00 Texas Instruments SN74LS00 datasheet
06-01-2016 SN74S00 Texas Instruments SN74S00 datasheet
06-01-2016 UCC3808-1 Low Power Current Mode Push-Pull PW Unitrode UCC3808-1 datasheet
06-01-2016 UCC3808-2 Low Power Current Mode Push-Pull PW Unitrode UCC3808-2 datasheet
06-01-2016 SN54LS00-SP Texas Instruments SN54LS00-SP datasheet
06-01-2016 UCC2808-1 Texas Instruments UCC2808-1 datasheet
06-01-2016 UCC1808-1 Low Power Current Mode Push-Pull PW Unitrode UCC1808-1 datasheet
06-01-2016 74HCT4075-Q100 74HC4075-Q100; 74HCT4075-Q100 Tripl NXP 74HCT4075-Q100 datasheet
06-01-2016 UCC2808-2 Low Power Current Mode Push-Pull PW Unitrode UCC2808-2 datasheet
06-01-2016 CD54HC4015 Texas Instruments CD54HC4015 datasheet
06-01-2016 74HCT4094 74HC4094; 74HCT4094 8-stage shift- NXP 74HCT4094 datasheet
06-01-2016 74HCT4020 74HC4020; 74HCT4020 14-stage binar NXP 74HCT4020 datasheet
06-01-2016 74HC4066 74HC4066; 74HCT4066 Quad single-po NXP 74HC4066 datasheet
06-01-2016 74HCT4066 74HC4066; 74HCT4066 Quad single-po NXP 74HCT4066 datasheet
06-01-2016 74HCT4017 74HC4017; 74HCT4017 Johnson decade NXP 74HCT4017 datasheet
06-01-2016 74HCT40105 74HC40105; 74HCT40105 4-bit x 16-w NXP 74HCT40105 datasheet
06-01-2016 74HCT4002 74HC4002; 74HCT4002 Dual 4-input N NXP 74HCT4002 datasheet
06-01-2016 UCC3808-1 Texas Instruments UCC3808-1 datasheet
06-01-2016 UCC3808-2 Texas Instruments UCC3808-2 datasheet
06-01-2016 74LVC543 Philips Semiconductors Octal D-type Philips 74LVC543 datasheet
06-01-2016 EMC4002 EMC4002 SMBus Fan Driver with Tempe Microchip EMC4002 datasheet
06-01-2016 AON6554 AON6554 30V N-Channel AlphaMOS Gen Alpha & Omega Semiconductors AON6554 datasheet
06-01-2016 AON6558 AON6558 30V N-Channel AlphaMOS Gen Alpha & Omega Semiconductors AON6558 datasheet
06-01-2016 C1678 SavantIC Semiconductor Silicon NPN SavantIC C1678 datasheet
06-01-2016 LP2975 Texas Instruments LP2975 datasheet
06-01-2016 DRV8825 Texas Instruments DRV8825 datasheet
06-01-2016 74HCT423 74HC423; 74HCT423 Dual retriggerab NXP 74HCT423 datasheet
06-01-2016 CD74HCT4067 Texas Instruments CD74HCT4067 datasheet
06-01-2016 C1678 www..com www. Toshiba Semiconductor C1678 datasheet
06-01-2016 UTC9015 UTC 9015 PNP EPITAXIAL SILICON TRA UTC UTC9015 datasheet
06-01-2016 GS9015 GS9015 New Product Vishay Semicon Vishay GS9015 datasheet
06-01-2016 SN5400 Texas Instruments SN5400 datasheet
06-01-2016 SN54LS00 Texas Instruments SN54LS00 datasheet
06-01-2016 SN54S00 Texas Instruments SN54S00 datasheet
06-01-2016 UCC1808-2 Low Power Current Mode Push-Pull PW Unitrode UCC1808-2 datasheet
06-01-2016 DM74LS258B Texas Instruments DM74LS258B datasheet
06-01-2016 DM74LS257B Texas Instruments DM74LS257B datasheet
06-01-2016 DM54LS258B Texas Instruments DM54LS258B datasheet
06-01-2016 DM54LS257B Texas Instruments DM54LS257B datasheet
06-01-2016 54LS258 Texas Instruments 54LS258 datasheet
06-01-2016 DM74LS20 Texas Instruments DM74LS20 datasheet
06-01-2016 DM54LS20 Texas Instruments DM54LS20 datasheet
06-01-2016 DM74LS157 Texas Instruments DM74LS157 datasheet
06-01-2016 DM54LS157 Texas Instruments DM54LS157 datasheet
06-01-2016 74LS157 Texas Instruments 74LS157 datasheet
06-01-2016 54LS157 Texas Instruments 54LS157 datasheet
06-01-2016 DM74LS153 Texas Instruments DM74LS153 datasheet
06-01-2016 DM54LS153 Texas Instruments DM54LS153 datasheet
06-01-2016 DM74LS151 Texas Instruments DM74LS151 datasheet
06-01-2016 DM54LS151 Texas Instruments DM54LS151 datasheet
06-01-2016 DM74LS139 Texas Instruments DM74LS139 datasheet
06-01-2016 DM54LS139 Texas Instruments DM54LS139 datasheet
06-01-2016 54LS139 Texas Instruments 54LS139 datasheet
06-01-2016 DM74LS138 Texas Instruments DM74LS138 datasheet
06-01-2016 DM54LS138 Texas Instruments DM54LS138 datasheet
06-01-2016 DM74LS11 Texas Instruments DM74LS11 datasheet
06-01-2016 DM54LS11 Texas Instruments DM54LS11 datasheet
06-01-2016 DM54LS109A Texas Instruments DM54LS109A datasheet
06-01-2016 DM74LS109 Texas Instruments DM74LS109 datasheet
06-01-2016 DM54LS109 Texas Instruments DM54LS109 datasheet
06-01-2016 DM74LS10 Texas Instruments DM74LS10 datasheet
06-01-2016 DM54LS10 Texas Instruments DM54LS10 datasheet
06-01-2016 DM74LS08 Texas Instruments DM74LS08 datasheet
06-01-2016 DM54LS08 Texas Instruments DM54LS08 datasheet
06-01-2016 74F828 Texas Instruments 74F828 datasheet
06-01-2016 74F827 Texas Instruments 74F827 datasheet
06-01-2016 74F825 Texas Instruments 74F825 datasheet
06-01-2016 74F823 Texas Instruments 74F823 datasheet
06-01-2016 74F821 Texas Instruments 74F821 datasheet
06-01-2016 74F74 Texas Instruments 74F74 datasheet
06-01-2016 74F676 Texas Instruments 74F676 datasheet
06-01-2016 74F657 Texas Instruments 74F657 datasheet
06-01-2016 74F652 Texas Instruments 74F652 datasheet
06-01-2016 74F651 Texas Instruments 74F651 datasheet
06-01-2016 54F652 Texas Instruments 54F652 datasheet
06-01-2016 74F648 Texas Instruments 74F648 datasheet
06-01-2016 74F646B Texas Instruments 74F646B datasheet
06-01-2016 74F646 Texas Instruments 74F646 datasheet
06-01-2016 54F646 Texas Instruments 54F646 datasheet
06-01-2016 74F64 Texas Instruments 74F64 datasheet
06-01-2016 74F574 Texas Instruments 74F574 datasheet
06-01-2016 74F573 Texas Instruments 74F573 datasheet
06-01-2016 74F563 Texas Instruments 74F563 datasheet
06-01-2016 74F545 Texas Instruments 74F545 datasheet
06-01-2016 74F544 Texas Instruments 74F544 datasheet
06-01-2016 74F541 Texas Instruments 74F541 datasheet
06-01-2016 74F540 Texas Instruments 74F540 datasheet
06-01-2016 54F541 Texas Instruments 54F541 datasheet
06-01-2016 74F534 Texas Instruments 74F534 datasheet
06-01-2016 74F533 Texas Instruments 74F533 datasheet
06-01-2016 74F521 Texas Instruments 74F521 datasheet
06-01-2016 74F413 Texas Instruments 74F413 datasheet
06-01-2016 74F410 Texas Instruments 74F410 datasheet
06-01-2016 74F402 Texas Instruments 74F402 datasheet
06-01-2016 74F399 Texas Instruments 74F399 datasheet
06-01-2016 74F398 Texas Instruments 74F398 datasheet
06-01-2016 54F398 Texas Instruments 54F398 datasheet
06-01-2016 74F38 Texas Instruments 74F38 datasheet
06-01-2016 SSM04N70BGP-A SSM04N70BGP-A N-channel Enhancement Silicon Standard SSM04N70BGP-A datasheet
06-01-2016 TL432 TL431 TL432 Programmable voltage re STMicroelectronics TL432 datasheet
06-01-2016 SN74HC08-Q1 Texas Instruments SN74HC08-Q1 datasheet
06-01-2016 SN54HC08 Texas Instruments SN54HC08 datasheet
06-01-2016 SN74HC08 Texas Instruments SN74HC08 datasheet
06-01-2016 M238HCJ-L30 PRODUCT SPECIFICATION Doc. Number Innolux M238HCJ-L30 datasheet
06-01-2016 SN54HC08-DIE Texas Instruments SN54HC08-DIE datasheet
06-01-2016 UC3177 UC3176 UC3177 Full Bridge Power Am Unitrode UC3177 datasheet
06-01-2016 UC3176 UC3176 UC3177 Full Bridge Power Am Unitrode UC3176 datasheet
06-01-2016 PZU36B PZUxB series Single Zener diodes in NXP PZU36B datasheet
06-01-2016 PZU33B PZUxB series Single Zener diodes in NXP PZU33B datasheet
06-01-2016 PZU30B PZUxB series Single Zener diodes in NXP PZU30B datasheet
06-01-2016 PZU24B PZUxB series Single Zener diodes in NXP PZU24B datasheet
06-01-2016 PZU27B PZUxB series Single Zener diodes in NXP PZU27B datasheet
06-01-2016 PZU22B PZUxB series Single Zener diodes in NXP PZU22B datasheet
06-01-2016 PZU20B PZUxB series Single Zener diodes in NXP PZU20B datasheet
06-01-2016 PZU18B PZUxB series Single Zener diodes in NXP PZU18B datasheet
06-01-2016 PZU15B PZUxB series Single Zener diodes in NXP PZU15B datasheet
06-01-2016 PZU16B PZUxB series Single Zener diodes in NXP PZU16B datasheet
06-01-2016 PZU14B PZUxB series Single Zener diodes in NXP PZU14B datasheet
06-01-2016 PZU13B PZUxB series Single Zener diodes in NXP PZU13B datasheet
06-01-2016 PZU11B PZUxB series Single Zener diodes in NXP PZU11B datasheet
06-01-2016 PZU12B PZUxB series Single Zener diodes in NXP PZU12B datasheet
06-01-2016 PZU10B PZUxB series Single Zener diodes in NXP PZU10B datasheet
06-01-2016 PZU8.2B PZUxB series Single Zener diodes in NXP PZU8.2B datasheet
06-01-2016 PZU9.1B PZUxB series Single Zener diodes in NXP PZU9.1B datasheet
06-01-2016 PZU7.5B PZUxB series Single Zener diodes in NXP PZU7.5B datasheet
06-01-2016 PZU6.8B PZUxB series Single Zener diodes in NXP PZU6.8B datasheet
06-01-2016 PZU6.2B PZUxB series Single Zener diodes in NXP PZU6.2B datasheet
06-01-2016 PZU5.1B PZUxB series Single Zener diodes in NXP PZU5.1B datasheet
06-01-2016 PZU5.6B PZUxB series Single Zener diodes in NXP PZU5.6B datasheet
06-01-2016 PZU4.7B PZUxB series Single Zener diodes in NXP PZU4.7B datasheet
06-01-2016 PZU4.3B PZUxB series Single Zener diodes in NXP PZU4.3B datasheet
06-01-2016 PZU3.6B PZUxB series Single Zener diodes in NXP PZU3.6B datasheet
06-01-2016 PZU3.9B PZUxB series Single Zener diodes in NXP PZU3.9B datasheet
06-01-2016 PZU3.3B PZUxB series Single Zener diodes in NXP PZU3.3B datasheet
06-01-2016 PZU3.0B PZUxB series Single Zener diodes in NXP PZU3.0B datasheet
06-01-2016 PZU2.4B PZUxB series Single Zener diodes in NXP PZU2.4B datasheet
06-01-2016 PZU2.7B PZUxB series Single Zener diodes in NXP PZU2.7B datasheet
06-01-2016 LPD3015 Document 661-1 Coupled Inductors Coilcraft LPD3015 datasheet
06-01-2016 PZU36BA PZUxBA series Single Zener diodes R NXP PZU36BA datasheet
06-01-2016 PZU30BA PZUxBA series Single Zener diodes R NXP PZU30BA datasheet
06-01-2016 PZU33BA PZUxBA series Single Zener diodes R NXP PZU33BA datasheet
06-01-2016 PZU27BA PZUxBA series Single Zener diodes R NXP PZU27BA datasheet
06-01-2016 PZU24BA PZUxBA series Single Zener diodes R NXP PZU24BA datasheet
06-01-2016 PZU22BA PZUxBA series Single Zener diodes R NXP PZU22BA datasheet
06-01-2016 PZU20BA PZUxBA series Single Zener diodes R NXP PZU20BA datasheet
06-01-2016 PZU18BA PZUxBA series Single Zener diodes R NXP PZU18BA datasheet
06-01-2016 PZU15BA PZUxBA series Single Zener diodes R NXP PZU15BA datasheet
06-01-2016 PZU16BA PZUxBA series Single Zener diodes R NXP PZU16BA datasheet
06-01-2016 PZU14BA PZUxBA series Single Zener diodes R NXP PZU14BA datasheet
06-01-2016 PZU12BA PZUxBA series Single Zener diodes R NXP PZU12BA datasheet
06-01-2016 PZU13BA PZUxBA series Single Zener diodes R NXP PZU13BA datasheet
06-01-2016 PZU11BA PZUxBA series Single Zener diodes R NXP PZU11BA datasheet
06-01-2016 PZU10BA PZUxBA series Single Zener diodes R NXP PZU10BA datasheet
06-01-2016 PZU9.1BA PZUxBA series Single Zener diodes R NXP PZU9.1BA datasheet
06-01-2016 PZU8.2BA PZUxBA series Single Zener diodes R NXP PZU8.2BA datasheet
06-01-2016 PZU6.8BA PZUxBA series Single Zener diodes R NXP PZU6.8BA datasheet
06-01-2016 PZU7.5BA PZUxBA series Single Zener diodes R NXP PZU7.5BA datasheet
06-01-2016 PZU6.2BA PZUxBA series Single Zener diodes R NXP PZU6.2BA datasheet
06-01-2016 PZU5.6BA PZUxBA series Single Zener diodes R NXP PZU5.6BA datasheet
06-01-2016 PZU5.1BA PZUxBA series Single Zener diodes R NXP PZU5.1BA datasheet
06-01-2016 PZU4.7BA PZUxBA series Single Zener diodes R NXP PZU4.7BA datasheet
06-01-2016 PZU4.3BA PZUxBA series Single Zener diodes R NXP PZU4.3BA datasheet
06-01-2016 PZU3.9BA PZUxBA series Single Zener diodes R NXP PZU3.9BA datasheet
06-01-2016 PZU3.6BA PZUxBA series Single Zener diodes R NXP PZU3.6BA datasheet
06-01-2016 PZU3.3BA PZUxBA series Single Zener diodes R NXP PZU3.3BA datasheet
06-01-2016 PZU3.0BA PZUxBA series Single Zener diodes R NXP PZU3.0BA datasheet
06-01-2016 PZU2.4BA PZUxBA series Single Zener diodes R NXP PZU2.4BA datasheet
06-01-2016 PZU2.7BA PZUxBA series Single Zener diodes R NXP PZU2.7BA datasheet
06-01-2016 VCE6467T Texas Instruments VCE6467T datasheet
06-01-2016 AM5K2E02 Texas Instruments AM5K2E02 datasheet
06-01-2016 AM3715 Texas Instruments AM3715 datasheet
06-01-2016 AM3517 Texas Instruments AM3517 datasheet
06-01-2016 54AC821 Texas Instruments 54AC821 datasheet
06-01-2016 54AC74 Texas Instruments 54AC74 datasheet
06-01-2016 54AC521 Texas Instruments 54AC521 datasheet
06-01-2016 54AC373 Texas Instruments 54AC373 datasheet
06-01-2016 93L14 Texas Instruments 93L14 datasheet
06-01-2016 93L09 Texas Instruments 93L09 datasheet
06-01-2016 93L00 Texas Instruments 93L00 datasheet
06-01-2016 78ST305 Texas Instruments 78ST305 datasheet
06-01-2016 78ST205 Texas Instruments 78ST205 datasheet
06-01-2016 78ST112 Texas Instruments 78ST112 datasheet
06-01-2016 78SR115 Texas Instruments 78SR115 datasheet
06-01-2016 78HT353 Texas Instruments 78HT353 datasheet
06-01-2016 78HT210 Texas Instruments 78HT210 datasheet
06-01-2016 74SSTUB32868A Texas Instruments 74SSTUB32868A datasheet
06-01-2016 74SSTUB32868 Texas Instruments 74SSTUB32868 datasheet
06-01-2016 74SSTUB32866A Texas Instruments 74SSTUB32866A datasheet
06-01-2016 74SSTUB32865A Texas Instruments 74SSTUB32865A datasheet
06-01-2016 74SSTUB32865 Texas Instruments 74SSTUB32865 datasheet
06-01-2016 74SSTUB32864A Texas Instruments 74SSTUB32864A datasheet
06-01-2016 74ACT16864 Texas Instruments 74ACT16864 datasheet
06-01-2016 74ACT16863 Texas Instruments 74ACT16863 datasheet
06-01-2016 74ACT16861 Texas Instruments 74ACT16861 datasheet
06-01-2016 74ACT16841 Texas Instruments 74ACT16841 datasheet
06-01-2016 74ACT16833 Texas Instruments 74ACT16833 datasheet
06-01-2016 74ACT16827 Texas Instruments 74ACT16827 datasheet
06-01-2016 74ACT16825 Texas Instruments 74ACT16825 datasheet
06-01-2016 74ACT16823 Texas Instruments 74ACT16823 datasheet
06-01-2016 74ACT16821 Texas Instruments 74ACT16821 datasheet
06-01-2016 74ACT16657 Texas Instruments 74ACT16657 datasheet
06-01-2016 74ACT16652 Texas Instruments 74ACT16652 datasheet
06-01-2016 74ACT16651 Texas Instruments 74ACT16651 datasheet
06-01-2016 74ACT16648 Texas Instruments 74ACT16648 datasheet
06-01-2016 74ACT16646 Texas Instruments 74ACT16646 datasheet
06-01-2016 74ACT16640 Texas Instruments 74ACT16640 datasheet
06-01-2016 74ACT16623 Texas Instruments 74ACT16623 datasheet
06-01-2016 74ACT16620 Texas Instruments 74ACT16620 datasheet
06-01-2016 74ACT16544 Texas Instruments 74ACT16544 datasheet
06-01-2016 74ACT16543 Texas Instruments 74ACT16543 datasheet
06-01-2016 74ACT16541 Texas Instruments 74ACT16541 datasheet
06-01-2016 74ACT16540 Texas Instruments 74ACT16540 datasheet
06-01-2016 74ACT16475 Texas Instruments 74ACT16475 datasheet
06-01-2016 74ACT16474 Texas Instruments 74ACT16474 datasheet
06-01-2016 74ACT16470 Texas Instruments 74ACT16470 datasheet
06-01-2016 74ACT16374 Texas Instruments 74ACT16374 datasheet
06-01-2016 74ACT16373 Texas Instruments 74ACT16373 datasheet
06-01-2016 74ACT16254 Texas Instruments 74ACT16254 datasheet
06-01-2016 74ACT16241 Texas Instruments 74ACT16241 datasheet
06-01-2016 74ACT16240 Texas Instruments 74ACT16240 datasheet
06-01-2016 74ACT11898 Texas Instruments 74ACT11898 datasheet
06-01-2016 74ACT11874 Texas Instruments 74ACT11874 datasheet
06-01-2016 74ACT11873 Texas Instruments 74ACT11873 datasheet
06-01-2016 74ACT11867 Texas Instruments 74ACT11867 datasheet
06-01-2016 74ACT11828 Texas Instruments 74ACT11828 datasheet
06-01-2016 74ACT11827 Texas Instruments 74ACT11827 datasheet
06-01-2016 74ACT11825 Texas Instruments 74ACT11825 datasheet
06-01-2016 74ACT11821 Texas Instruments 74ACT11821 datasheet
06-01-2016 74ACT11810 Texas Instruments 74ACT11810 datasheet
06-01-2016 74ACT11802 Texas Instruments 74ACT11802 datasheet
06-01-2016 74ACT11657 Texas Instruments 74ACT11657 datasheet
06-01-2016 74ACT11656 Texas Instruments 74ACT11656 datasheet
06-01-2016 74ACT11651 Texas Instruments 74ACT11651 datasheet
06-01-2016 74ACT11648 Texas Instruments 74ACT11648 datasheet
06-01-2016 74ACT11646 Texas Instruments 74ACT11646 datasheet
06-01-2016 74ACT11643 Texas Instruments 74ACT11643 datasheet
06-01-2016 74ACT11640 Texas Instruments 74ACT11640 datasheet
06-01-2016 74ACT11623 Texas Instruments 74ACT11623 datasheet
06-01-2016 74ACT11620 Texas Instruments 74ACT11620 datasheet
06-01-2016 74ACT11593 Texas Instruments 74ACT11593 datasheet
06-01-2016 74ACT11590 Texas Instruments 74ACT11590 datasheet
06-01-2016 74ACT11544 Texas Instruments 74ACT11544 datasheet
06-01-2016 74ACT11543 Texas Instruments 74ACT11543 datasheet
06-01-2016 74ACT11534 Texas Instruments 74ACT11534 datasheet
06-01-2016 74ACT11533 Texas Instruments 74ACT11533 datasheet
06-01-2016 74ACT11521 Texas Instruments 74ACT11521 datasheet
06-01-2016 74ACT11520 Texas Instruments 74ACT11520 datasheet
06-01-2016 PJF5NA50 PPJU5NA50 / PJD5NA50 / PJP5NA50 / P Pan Jit International PJF5NA50 datasheet
06-01-2016 PJP5NA50 PPJU5NA50 / PJD5NA50 / PJP5NA50 / P Pan Jit International PJP5NA50 datasheet
06-01-2016 PJD5NA50 PPJU5NA50 / PJD5NA50 / PJP5NA50 / P Pan Jit International PJD5NA50 datasheet
06-01-2016 PJU5NA50 PPJU5NA50 / PJD5NA50 / PJP5NA50 / P Pan Jit International PJU5NA50 datasheet
06-01-2016 PJD50N10L PPJU50N10L / PJD50N10L 100V N-Chan Pan Jit International PJD50N10L datasheet
06-01-2016 GD65232 Texas Instruments GD65232 datasheet
06-01-2016 GD75232 Texas Instruments GD75232 datasheet
06-01-2016 PJU50N10L PPJU50N10L / PJD50N10L 100V N-Chan Pan Jit International PJU50N10L datasheet
06-01-2016 PJF5NA80 PPJU5NA80 / PJD5NA80 / PJP5NA80 / P Pan Jit International PJF5NA80 datasheet
06-01-2016 PJP5NA80 PPJU5NA80 / PJD5NA80 / PJP5NA80 / P Pan Jit International PJP5NA80 datasheet
06-01-2016 PJD5NA80 PPJU5NA80 / PJD5NA80 / PJP5NA80 / P Pan Jit International PJD5NA80 datasheet
06-01-2016 PJU5NA80 PPJU5NA80 / PJD5NA80 / PJP5NA80 / P Pan Jit International PJU5NA80 datasheet
06-01-2016 P5NA80 ( DataSheet : www..com ) STMicroelectronics P5NA80 datasheet
06-01-2016 UFX6000 UFX6000 USB 2.0 Hi-Speed Graphics C SMSC UFX6000 datasheet
06-01-2016 MS120 PRELIMINARY .047(1.20) MS14~MS120 Pan Jit International MS120 datasheet
06-01-2016 MS115 PRELIMINARY .047(1.20) MS14~MS120 Pan Jit International MS115 datasheet
06-01-2016 MS110 PRELIMINARY .047(1.20) MS14~MS120 Pan Jit International MS110 datasheet
06-01-2016 MS19 PRELIMINARY .047(1.20) MS14~MS120 Pan Jit International MS19 datasheet
06-01-2016 MS18 PRELIMINARY .047(1.20) MS14~MS120 Pan Jit International MS18 datasheet
06-01-2016 MS16 PRELIMINARY .047(1.20) MS14~MS120 Pan Jit International MS16 datasheet
06-01-2016 MS15 PRELIMINARY .047(1.20) MS14~MS120 Pan Jit International MS15 datasheet
06-01-2016 MS14A PRELIMINARY .047(1.20) MS14~MS120 Pan Jit International MS14A datasheet
06-01-2016 MS14 PRELIMINARY .047(1.20) MS14~MS120 Pan Jit International MS14 datasheet
06-01-2016 MS18N50 MS18N50 500V N-channel MOSFET Descr Bruckewell MS18N50 datasheet
06-01-2016 MS17N03Q8 Preliminary_MS17N03Q8 N-Channel Log Bruckewell MS17N03Q8 datasheet
06-01-2016 MS15N60 MS15N60 N-Channel Enhancement Mode Bruckewell MS15N60 datasheet
06-01-2016 MS15N50 MS15N50 N-Channel Enhancement Mode Bruckewell MS15N50 datasheet
06-01-2016 MS14P21 MS14P21 P-Channel 20-V (D-S) MOSFET Bruckewell MS14P21 datasheet
06-01-2016 MS14N60 MS14N60 900V N-Channel MOSFET Descr Bruckewell MS14N60 datasheet
06-01-2016 MS1337 RF & MICROWAVE TRANSISTORS VHF MOBI Advanced Power Technology MS1337 datasheet
06-01-2016 MS1336 140 COMMERCE DRIVE MONTGOMERYVILLE, Advanced Power Technology MS1336 datasheet
06-01-2016 MS1329 RF & MICROWAVE TRANSISTORS VHF FM A Advanced Power Technology MS1329 datasheet
06-01-2016 MS13P21 MS13P21 P-Channel 20-V (D-S) MOSFET Bruckewell MS13P21 datasheet
06-01-2016 MS13N50 MS13N50 500V N-Channel MOSFET Descr Bruckewell MS13N50 datasheet
06-01-2016 MS12N65 MS12N65 N-Channel Enhancement Mode Bruckewell MS12N65 datasheet
06-01-2016 MS12N60 MS12N60 N-Channel Enhancement Mode Bruckewell MS12N60 datasheet
06-01-2016 MS10N80 MS10N80 800V N-Channel MOSFET Descr Bruckewell MS10N80 datasheet
06-01-2016 MS10N65 MS10N65 N-Channel Enhancement Mode Bruckewell MS10N65 datasheet
06-01-2016 MS10N65SJ MS10N65SJ 10A 650V N-Channel Super Bruckewell MS10N65SJ datasheet
06-01-2016 MS10N60 MS10N60 600V N-Channel MOSFET Gener Bruckewell MS10N60 datasheet
06-01-2016 MMBT2222 BL Galaxy Electrical NPN General P Galaxy Semi-Conductor MMBT2222 datasheet
06-01-2016 KBL10 KBL 0.768(19.5) 0.728(18.5) 0.580( MDD KBL10 datasheet
06-01-2016 KBL08 KBL 0.768(19.5) 0.728(18.5) 0.580( MDD KBL08 datasheet
06-01-2016 KBL06 KBL 0.768(19.5) 0.728(18.5) 0.580( MDD KBL06 datasheet
06-01-2016 KBL02 KBL 0.768(19.5) 0.728(18.5) 0.580( MDD KBL02 datasheet
06-01-2016 KBL04 KBL 0.768(19.5) 0.728(18.5) 0.580( MDD KBL04 datasheet
06-01-2016 KBL01 KBL 0.768(19.5) 0.728(18.5) 0.580( MDD KBL01 datasheet
06-01-2016 KBL005 KBL 0.768(19.5) 0.728(18.5) 0.580( MDD KBL005 datasheet
06-01-2016 DFR0.3K Major Ratings and Characteristics LGE DFR0.3K datasheet
06-01-2016 DFR0.3M Major Ratings and Characteristics LGE DFR0.3M datasheet
06-01-2016 DFR0.3J Major Ratings and Characteristics LGE DFR0.3J datasheet
06-01-2016 DFR0.3G Major Ratings and Characteristics LGE DFR0.3G datasheet
06-01-2016 DFR0.3B Major Ratings and Characteristics LGE DFR0.3B datasheet
06-01-2016 DFR0.3D Major Ratings and Characteristics LGE DFR0.3D datasheet
06-01-2016 DFR0.3A Major Ratings and Characteristics LGE DFR0.3A datasheet
06-01-2016 DFR0.3M DFR0.3A THRU DFR0.3M SOD-123FL Cat MDD DFR0.3M datasheet
06-01-2016 DFR0.3K DFR0.3A THRU DFR0.3M SOD-123FL Cat MDD DFR0.3K datasheet
06-01-2016 DFR0.3J DFR0.3A THRU DFR0.3M SOD-123FL Cat MDD DFR0.3J datasheet
06-01-2016 DFR0.3G DFR0.3A THRU DFR0.3M SOD-123FL Cat MDD DFR0.3G datasheet
06-01-2016 DFR0.3D DFR0.3A THRU DFR0.3M SOD-123FL Cat MDD DFR0.3D datasheet
06-01-2016 DFR0.3B DFR0.3A THRU DFR0.3M SOD-123FL Cat MDD DFR0.3B datasheet
06-01-2016 DFR0.3A DFR0.3A THRU DFR0.3M SOD-123FL Cat MDD DFR0.3A datasheet
06-01-2016 DFR0.5M Major Ratings and Characteristics LGE DFR0.5M datasheet
06-01-2016 DFR0.5K Major Ratings and Characteristics LGE DFR0.5K datasheet
06-01-2016 DFR0.5J Major Ratings and Characteristics LGE DFR0.5J datasheet
06-01-2016 DFR0.5G Major Ratings and Characteristics LGE DFR0.5G datasheet
06-01-2016 DFR0.5D Major Ratings and Characteristics LGE DFR0.5D datasheet
06-01-2016 DFR0.5B Major Ratings and Characteristics LGE DFR0.5B datasheet
06-01-2016 DFR0.5A Major Ratings and Characteristics LGE DFR0.5A datasheet
06-01-2016 DFR0.5M DFR0.5A THRU DFR0.5M SOD-123FL Cat MDD DFR0.5M datasheet
06-01-2016 DFR0.5K DFR0.5A THRU DFR0.5M SOD-123FL Cat MDD DFR0.5K datasheet
06-01-2016 DFR0.5J DFR0.5A THRU DFR0.5M SOD-123FL Cat MDD DFR0.5J datasheet
06-01-2016 DFR0.5G DFR0.5A THRU DFR0.5M SOD-123FL Cat MDD DFR0.5G datasheet
06-01-2016 DFR0.5D DFR0.5A THRU DFR0.5M SOD-123FL Cat MDD DFR0.5D datasheet
06-01-2016 DFR0.5B DFR0.5A THRU DFR0.5M SOD-123FL Cat MDD DFR0.5B datasheet
06-01-2016 DFR0.5A DFR0.5A THRU DFR0.5M SOD-123FL Cat MDD DFR0.5A datasheet
06-01-2016 74AC11652 Texas Instruments 74AC11652 datasheet
06-01-2016 74AC11651 Texas Instruments 74AC11651 datasheet
06-01-2016 74AC11648 Texas Instruments 74AC11648 datasheet
06-01-2016 74AC11646 Texas Instruments 74AC11646 datasheet
06-01-2016 74AC11643 Texas Instruments 74AC11643 datasheet
06-01-2016 74AC11640 Texas Instruments 74AC11640 datasheet
06-01-2016 74AC11623 Texas Instruments 74AC11623 datasheet
06-01-2016 74AC11620 Texas Instruments 74AC11620 datasheet
06-01-2016 74AC11593 Texas Instruments 74AC11593 datasheet
06-01-2016 74AC11590 Texas Instruments 74AC11590 datasheet
06-01-2016 74AC11534 Texas Instruments 74AC11534 datasheet
06-01-2016 74AC11521 Texas Instruments 74AC11521 datasheet
06-01-2016 74AC11520 Texas Instruments 74AC11520 datasheet
06-01-2016 74AC11478 Texas Instruments 74AC11478 datasheet
06-01-2016 74AC11379 Texas Instruments 74AC11379 datasheet
06-01-2016 74AC11378 Texas Instruments 74AC11378 datasheet
06-01-2016 74AC11377 Texas Instruments 74AC11377 datasheet
06-01-2016 74AC11374 Texas Instruments 74AC11374 datasheet
06-01-2016 74AC11373 Texas Instruments 74AC11373 datasheet
06-01-2016 74AC11353 Texas Instruments 74AC11353 datasheet
06-01-2016 74AC11352 Texas Instruments 74AC11352 datasheet
06-01-2016 74AC11286 Texas Instruments 74AC11286 datasheet
06-01-2016 74AC11280 Texas Instruments 74AC11280 datasheet
06-01-2016 74AC11273 Texas Instruments 74AC11273 datasheet
06-01-2016 74AC11258 Texas Instruments 74AC11258 datasheet
06-01-2016 74AC11257 Texas Instruments 74AC11257 datasheet
06-01-2016 74AC11253 Texas Instruments 74AC11253 datasheet
06-01-2016 74AC11251 Texas Instruments 74AC11251 datasheet
06-01-2016 74AC11245 Texas Instruments 74AC11245 datasheet
06-01-2016 74AC11244 Texas Instruments 74AC11244 datasheet
06-01-2016 74AC11241 Texas Instruments 74AC11241 datasheet
06-01-2016 74AC11240 Texas Instruments 74AC11240 datasheet
06-01-2016 74AC11239 Texas Instruments 74AC11239 datasheet
06-01-2016 74AC11238 Texas Instruments 74AC11238 datasheet
06-01-2016 74AC11194 Texas Instruments 74AC11194 datasheet
06-01-2016 74AC11191 Texas Instruments 74AC11191 datasheet
06-01-2016 74AC11175 Texas Instruments 74AC11175 datasheet
06-01-2016 74AC11174 Texas Instruments 74AC11174 datasheet
06-01-2016 74AC11162 Texas Instruments 74AC11162 datasheet
06-01-2016 74AC11160 Texas Instruments 74AC11160 datasheet
06-01-2016 74AC11158 Texas Instruments 74AC11158 datasheet
06-01-2016 74AC11157 Texas Instruments 74AC11157 datasheet
06-01-2016 74AC11153 Texas Instruments 74AC11153 datasheet
06-01-2016 74AC11151 Texas Instruments 74AC11151 datasheet
06-01-2016 74AC11139 Texas Instruments 74AC11139 datasheet
06-01-2016 74AC11138 Texas Instruments 74AC11138 datasheet
06-01-2016 74AC11132 Texas Instruments 74AC11132 datasheet
06-01-2016 74AC11112 Texas Instruments 74AC11112 datasheet
06-01-2016 74AC11109 Texas Instruments 74AC11109 datasheet
06-01-2016 74AC11086 Texas Instruments 74AC11086 datasheet
06-01-2016 74AC11074 Texas Instruments 74AC11074 datasheet
06-01-2016 74AC11034 Texas Instruments 74AC11034 datasheet
06-01-2016 74AC11032 Texas Instruments 74AC11032 datasheet
06-01-2016 74AC11030 Texas Instruments 74AC11030 datasheet
06-01-2016 74AC11027 Texas Instruments 74AC11027 datasheet
06-01-2016 74AC11021 Texas Instruments 74AC11021 datasheet
06-01-2016 74AC11014 Texas Instruments 74AC11014 datasheet
06-01-2016 74AC11013 Texas Instruments 74AC11013 datasheet
06-01-2016 74AC11011 Texas Instruments 74AC11011 datasheet
06-01-2016 74AC11010 Texas Instruments 74AC11010 datasheet
06-01-2016 74AC11008 Texas Instruments 74AC11008 datasheet
06-01-2016 74AC11004 Texas Instruments 74AC11004 datasheet
06-01-2016 74AC11002 Texas Instruments 74AC11002 datasheet
06-01-2016 74AC11000 Texas Instruments 74AC11000 datasheet


The site has been moved : DatasheetsPDF.com
Since 2005 - HOME - Link US - All - Contact Us -